This is the latest recevied weather packets stored in our database for station/object NK7E. If no packets are shown the sender has not sent any weather packets the latest 10 day(s).
| Time | Temp. | Humidity | Pressure | Rain* | Wind** | Luminosity | Snow |
|---|---|---|---|---|---|---|---|
| 1777826117 | 25.56° C | 34% | 1014.7 hPa | 0 mm | - | 369 W/m² | - |
| 1777825517 | 25.56° C | 35% | 1014.6 hPa | 0 mm | - | 344 W/m² | - |
| 1777824917 | 25° C | 36% | 1014.6 hPa | 0 mm | - | 386 W/m² | - |
| 1777824317 | 25° C | 35% | 1014.5 hPa | 0 mm | - | 393 W/m² | - |
| 1777823717 | 24.44° C | 36% | 1014.5 hPa | 0 mm | - | 346 W/m² | - |
| 1777823117 | 24.44° C | 36% | 1014.4 hPa | 0 mm | - | 309 W/m² | - |
| 1777822517 | 24.44° C | 37% | 1014.3 hPa | 0 mm | - | 312 W/m² | - |
| 1777821917 | 23.89° C | 37% | 1014.4 hPa | 0 mm | - | 358 W/m² | - |
| 1777821317 | 23.89° C | 37% | 1014.4 hPa | 0 mm | - | 297 W/m² | - |
| 1777820717 | 23.89° C | 37% | 1014.5 hPa | 0 mm | - | 202 W/m² | - |
| 1777820117 | 23.89° C | 37% | 1014.5 hPa | 0 mm | - | 181 W/m² | - |
| 1777819517 | 23.33° C | 36% | 1014.3 hPa | 0 mm | - | 175 W/m² | - |
| 1777818917 | 23.33° C | 37% | 1014.2 hPa | 0 mm | - | 179 W/m² | - |
| 1777818317 | 23.33° C | 37% | 1014 hPa | 0 mm | - | 159 W/m² | - |
| 1777817717 | 22.78° C | 38% | 1014.1 hPa | 0 mm | - | 156 W/m² | - |
| 1777817117 | 22.22° C | 38% | 1014.1 hPa | 0 mm | - | 121 W/m² | - |
| 1777816517 | 21.67° C | 40% | 1014 hPa | 0 mm | - | 122 W/m² | - |
| 1777815917 | 21.11° C | 42% | 1013.9 hPa | 0 mm | - | 119 W/m² | - |
| 1777815317 | 21.11° C | 42% | 1013.7 hPa | 0 mm | - | 81 W/m² | - |
| 1777814717 | 21.11° C | 42% | 1013.5 hPa | 0 mm | - | 51 W/m² | - |
| 1777814117 | 20.56° C | 42% | 1013.5 hPa | 0 mm | - | 50 W/m² | - |
| 1777813517 | 20.56° C | 42% | 1013.5 hPa | 0 mm | - | 24 W/m² | - |
| 1777812917 | 20.56° C | 41% | 1013.3 hPa | 0 mm | - | 12 W/m² | - |
| 1777812317 | 21.11° C | 41% | 1013.2 hPa | 0 mm | - | 3 W/m² | - |
| 1777811717 | 21.11° C | 40% | 1013.2 hPa | 0 mm | - | 0 W/m² | - |
* Rain latest hour (hover to see other rain measurements)
** Current wind speed in m/s (hover to see current wind gust speed)